Home > Weather > Yellowknife > Past weeks

Flag for Canada Past Weather in Yellowknife, Northwest Territories, Canada — Yesterday and Last 2 Weeks

Now
79 °F

Scattered clouds.


Feels Like: 79 °F
Forecast: 58 / 80 °F
Wind: 12 mph from South

Location: Yellowknife

Current Time: Jun 30, 2016 at 1:43:14 PM

Latest Report: Jun 30, 2016 at 1:00 PM


Visibility: 15 mi

Pressure: 30.06 "Hg

Humidity: 37%

Dew Point: 50 °F

Location of YellowknifeLocation

Past Weather in Yellowknife — Graph

°F

Yellowknife Temperature Yesterday

Maximum temperature yesterday: 77 °F (at 7:00 PM)
Minimum temperature yesterday: 55 °F (at 4:00 AM)
Average temperature yesterday: 68 °F

High & Low Weather Summary for the Past Weeks

 TemperatureHumidityPressure
High82 °F (Jun 21, 6:00 PM)100% (Jun 16, 2:55 AM)30.22 "Hg (Jun 16, 2:55 AM)
Low37 °F (Jun 18, 3:00 AM)15% (Jun 19, 4:00 PM)29.59 "Hg (Jun 15, 6:00 PM)
Average62 °F55%29.90 "Hg
* Reported Jun 15 12:00 PM — Jun 30 12:00 PM, Yellowknife, Weather by CustomWeather, © 2016

Note: Actual official high and low records may vary slightly from our data, if they occured in-between our weather recording intervals... More about our weather records

Advertising

Yellowknife Weather History for the Previous 24 Hours

Scroll right to see more
 ConditionsComfort  
Time TempWeatherWind HumidityBarometerVisibility
12:00 PM
Thu, Jun 30
77 °FScattered clouds.9 mph39%30.07 "Hg15 mi
11:00 AM77 °FScattered clouds.8 mph39%30.07 "Hg15 mi
10:00 AM73 °FScattered clouds.5 mph47%30.09 "Hg15 mi
9:00 AM72 °FPassing clouds.6 mph53%30.09 "Hg15 mi
8:00 AM70 °FPassing clouds.8 mph53%30.08 "Hg15 mi
7:00 AM66 °FPassing clouds.7 mph56%30.09 "Hg15 mi
6:00 AM64 °FPassing clouds.8 mph56%30.09 "Hg15 mi
5:00 AM64 °FPassing clouds.6 mph56%30.10 "Hg15 mi
4:00 AM59 °FPassing clouds.7 mph68%30.10 "Hg15 mi
3:00 AM63 °FPassing clouds.2 mph64%30.10 "Hg15 mi
2:00 AM63 °FPassing clouds.5 mph64%30.10 "Hg15 mi
1:00 AM64 °FPassing clouds.3 mph56%30.11 "Hg15 mi
12:00 AM64 °FPassing clouds.3 mph56%30.11 "Hg15 mi
11:00 PM
Wed, Jun 29
70 °FPassing clouds.3 mph46%30.11 "Hg15 mi
10:00 PM72 °FPassing clouds.3 mph44%30.11 "Hg15 mi
9:00 PM75 °FPassing clouds.3 mph34%30.11 "Hg15 mi
8:00 PM77 °FPassing clouds.5 mph30%30.12 "Hg15 mi
7:00 PM77 °FPassing clouds.5 mph32%30.13 "Hg15 mi
6:00 PM75 °FPassing clouds.7 mph36%30.14 "Hg15 mi
5:00 PM75 °FPassing clouds.9 mph39%30.15 "Hg15 mi
4:00 PM75 °FPassing clouds.12 mph39%30.16 "Hg15 mi
3:00 PM75 °FPassing clouds.13 mph39%30.17 "Hg15 mi
2:00 PM73 °FPassing clouds.14 mph41%30.18 "Hg15 mi
1:00 PM73 °FPassing clouds.12 mph41%30.19 "Hg15 mi
Weather by CustomWeather, © 2016

See weather overviewHow to use our weather pages